Regional Weather Roundup
Issued by NWS Bismarck, ND

Home | Current Version | Previous Version | Text Only | Print | Product List | Glossary On
Versions: 1 2 3 4 5 6 7 8 9 10 11 12 13 14 15 16 17 18 19 20 21 22 23 24 25 26 27 28 29 30 31 32 33 34 35 36 37 38 39 40 41 42 43 44 45 46 47 48 49 50
000
ASUS43 KBIS 061210
RWRBIS

NWR BROADCAST TEXT
NATIONAL WEATHER SERVICE BISMARCK ND
600 AM CST SAT FEB 06 2016

NOTE: "FAIR" INDICATES FEW OR NO CLOUDS BELOW 12,000 FEET WITH NO
SIGNIFICANT WEATHER AND/OR OBSTRUCTIONS TO VISIBILITY.


CITY           SKY/WX    TMP DP  RH WIND       PRES   REMARKS
WILLISTON      CLOUDY    34  26  72 SW8       29.79F
MINOT          CLOUDY    37  23  56 SW10      29.75F
MINOT AFB      CLOUDY    35  27  73 W14       29.74F
BISMARCK       CLOUDY    34  24  67 SW6       29.87F
DICKINSON      CLOUDY    33  21  61 W14       29.85S
GARRISON         N/A     31  24  75 SW12      29.80F
HETTINGER ARPT CLOUDY    33  21  61 W13       29.92F
JAMESTOWN      CLOUDY    30  22  72 SW14      29.86F WCI  19
BEACH          FAIR      36  19  51 SW16G22   29.91F
CARRINGTON     CLOUDY    32  28  86 SW13      29.84F
HAZEN          PTSUNNY   32  25  74 SW16      29.85F
LINTON         FAIR      30  27  86 SW8       29.92F
MANDAN         PTSUNNY   32  25  74 SW13      29.86F
OAKES          PTSUNNY   23  23 100 S14       29.93F WCI  11
RUGBY          FAIR      28  25  86 SW10      29.77F WCI  19
STANLEY        FAIR      32  28  86 W12       29.79F
TIOGA          FAIR      32  30  93 W14       29.80F
WATFORD CITY   FAIR      32  25  74 SW12G17   29.81F
$$

CITY           SKY/WX    TMP DP  RH WIND       PRES   REMARKS
GRAND FORKS    CLEAR     20  16  84 S9        29.89F WCI   9
GRAND FORKS AF CLEAR     18  15  88 S8        29.87F WCI   8
DEVILS LAKE    CLOUDY    29  24  82 S8        29.81F
FARGO          CLEAR     23  17  78 S13       29.93F WCI  11
CAVALIER       FAIR      19  18  93 S10       29.85F WCI   8
GRAFTON        FAIR      16  16 100 S8        29.88F WCI   5
GWINNER          N/A     27  23  86 S17       29.93F WCI  14
LANGDON        FAIR      21  19  93 S13       29.79F WCI   9
ROLLA          CLOUDY    25  25 100 SW12      29.75F WCI  14
WALHALLA       FAIR      23  23 100 S8        29.84F WCI  14
$$

CITY           SKY/WX    TMP DP  RH WIND       PRES   REMARKS
ABERDEEN       CLOUDY    23  19  85 S10       29.99F WCI  12
MOBRIDGE       CLOUDY    28  22  78 SE8       29.93F WCI  20
BUFFALO          N/A     32  19  58 W14       29.88F
RAPID CITY     CLOUDY    25  16  68 CALM      30.02F
GLASGOW        CLOUDY    38  26  62 W3        29.81F
SIDNEY         CLOUDY    34  25  69 SW12      29.83F
WOLF POINT     CLOUDY    35  27  72 SW7       29.81F
GLENDIVE       CLOUDY    36  21  55 SW14      29.90F
MILES CITY     CLOUDY    37  21  52 W8        29.94S
BAKER          CLOUDY    34  18  52 W15       29.93S
$$

CITY           SKY/WX    TMP DP  RH WIND       PRES   REMARKS
BILLINGS       CLOUDY    39  14  36 SW24      30.00F
GREAT FALLS    CLOUDY    42  20  41 SW26G32   29.89F
REGINA         CLOUDY    36  28  75 SW18      29.60F
ESTEVAN        CLOUDY    32  27  80 SW15G22   29.69
$$




USA.gov is the U.S. government's official web portal to all federal, state and local government web resources and services.